Riverside, CA

10:32 PM PST on November 19, 2017 (GMT -0800)
Riverside Municipal

Weather History for KRAL - December, 2011

Change the Weather History Date:

Saturday, December 10, 2011

  Actual Average Record
Temperature  
Mean Temperature 57 °F 55 °F  
Max Temperature 73 °F 67 °F 87 °F (1958)
Min Temperature 41 °F 43 °F 27 °F (1956)
Degree Days  
Heating Degree Days 8 10  
Month to date heating degree days 113 96  
Since 1 July heating degree days 336 296  
Cooling Degree Days 0 0  
Month to date cooling degree days 0 0  
Year to date cooling degree days 1718 1754  
Growing Degree Days 8 (Base 50)    
Moisture  
Dew Point 26 °F    
Average Humidity 26    
Maximum Humidity 43    
Minimum Humidity 9    
Precipitation  
Precipitation 0.00 in 0.04 in 1.23 in (1941)
Month to date precipitation 0.00 0.37  
Year to date precipitation 6.39 11.24  
Since 1 July precipitation 2.19  
Snow  
Snow 0.00 in - - ()
Month to date snowfall 0.0  
Year to date snowfall 0.0  
Snow Depth 0.00 in    
Sea Level Pressure  
Sea Level Pressure 30.05 in    
Wind  
Wind Speed 4 mph (NNE)    
Max Wind Speed 10 mph    
Max Gust Speed 14 mph    
Visibility 10 miles    
Events      
T = Trace of Precipitation, MM = Missing Value Source: NWS Daily Summary

Daily Weather History Graph

Daily Weather History Graph

Search for Another Location

Airport or City:

Trip Planner

Search our weather history database for the weather conditions in past years. The results will help you decide how hot, cold, wet, or windy it might be!

Date:

Astronomy

Dec. 10, 2011 Rise Set
Actual Time 6:44 AM PST 4:40 PM PST
Civil Twilight 6:16 AM PST 5:08 PM PST
Nautical Twilight 5:45 AM PST 5:39 PM PST
Astronomical Twilight 5:14 AM PST 6:10 PM PST
Moon 4:59 PM PST (12/10) 6:47 AM PST (12/10)
Length of Visible Light 10h 52m
Length of Day
9h 56m
Full, 100% of the Moon is Illuminated
Dec 10
Full
Dec 17
Last Quarter
Dec 24
New
Dec 31
First Quarter
Jan 8
Full

Hourly Weather History & Observations

Time (PST) Temp. Windchill Dew Point Humidity Pressure Visibility Wind Dir Wind Speed Gust Speed Precip Events Conditions
12:53 AM 46.9 °F - 25.0 °F 42% 30.11 in 10.0 mi East 4.6 mph - N/A   Clear
1:53 AM 48.9 °F - 21.9 °F 35% 30.11 in 10.0 mi NE 5.8 mph - N/A   Clear
2:53 AM 46.0 °F 43.1 °F 24.1 °F 42% 30.10 in 10.0 mi ENE 5.8 mph - N/A   Clear
3:53 AM 46.0 °F 42.5 °F 21.9 °F 39% 30.08 in 10.0 mi NE 6.9 mph - N/A   Clear
4:53 AM 46.0 °F 43.1 °F 21.9 °F 39% 30.07 in 10.0 mi NE 5.8 mph - N/A   Clear
5:53 AM 44.1 °F 41.5 °F 21.9 °F 42% 30.08 in 10.0 mi East 4.6 mph - N/A   Clear
6:53 AM 42.1 °F - 21.9 °F 45% 30.09 in 10.0 mi Calm Calm - N/A   Scattered Clouds
7:53 AM 48.0 °F - 24.1 °F 39% 30.10 in 10.0 mi ENE 4.6 mph - N/A   Clear
8:53 AM 54.0 °F - 23.0 °F 30% 30.11 in 10.0 mi Calm Calm - N/A   Scattered Clouds
9:53 AM 61.0 °F - 21.9 °F 22% 30.10 in 10.0 mi Calm Calm - N/A   Scattered Clouds
10:53 AM 68.0 °F - 19.9 °F 16% 30.08 in 10.0 mi Variable 3.5 mph - N/A   Clear
11:53 AM 71.1 °F - 12.9 °F 11% 30.04 in 10.0 mi Calm Calm - N/A   Clear
12:53 PM 72.0 °F - 12.9 °F 10% 30.01 in 10.0 mi Variable 3.5 mph - N/A   Clear
1:53 PM 73.0 °F - 10.9 °F 9% 29.99 in 10.0 mi Calm Calm - N/A   Clear
2:53 PM 72.0 °F - 15.1 °F 11% 29.99 in 10.0 mi West 9.2 mph - N/A   Clear
3:53 PM 68.0 °F - 30.9 °F 25% 29.99 in 10.0 mi West 6.9 mph - N/A   Clear
4:53 PM 63.0 °F - 34.0 °F 34% 30.00 in 10.0 mi West 6.9 mph - N/A   Clear
5:53 PM 60.1 °F - 37.0 °F 42% 30.00 in 10.0 mi WNW 4.6 mph - N/A   Clear
6:53 PM 55.0 °F - 37.9 °F 53% 30.02 in 10.0 mi Calm Calm - N/A   Clear
7:53 PM 52.0 °F - 37.0 °F 57% 30.02 in 9.0 mi Calm Calm - N/A   Clear
8:53 PM 50.0 °F - 37.0 °F 61% 30.02 in 9.0 mi Calm Calm - N/A   Clear
9:53 PM 48.9 °F - 36.0 °F 61% 30.02 in 9.0 mi Calm Calm - N/A   Clear
10:53 PM 48.0 °F - 36.0 °F 63% 30.01 in 8.0 mi Calm Calm - N/A   Clear
11:53 PM 45.0 °F - 36.0 °F 71% 30.01 in 8.0 mi Calm Calm - N/A   Clear